Retour au catalogue

STARLINK-1063

ActifCommunicationsVLEO
NORAD 44768·PAYLOAD·🇺🇸 United States

Lancé Nov 11, 2019 depuis Cape Canaveral Space Force Station

Loading…

Prochains Passages (prochaines 24 heures)

TLE

FraisSource: CelesTrak SupGP

Époque: Sep 15, 2026, 02:09 UTC

1 44768C 19074BH  26258.09006944  .00036532  00000+0  41778-3 0  2581
2 44768  53.1494  35.7774 0001034 197.0081 224.9222 15.61501192    19

Suivez STARLINK-1063 en temps réel avec AllMySat

Download on the App Store